Location: �mondeville
(49.4591°N, 1.3431°W)
Time: 21:49:33
(UTC+00:00)

Meteor 2-10 - Pass Details

Date: 22 October 2019
Orbit: 738 x 869 km, 81.2° (Epoch: 11 November)

Event Time Altitude Azimuth Distance (km) Brightness Sun altitude
Rises 05:23:19 0° 342° (NNW) 3,235 7.0 -12.6°
Reaches altitude 10° 05:25:45 10° 335° (NNW) 2,321 6.2 -12.2°
Maximum altitude 05:30:36 40° 267° (W) 1,146 4.4 -11.4°
Drops below altitude 10° 05:35:34 10° 199° (SSW) 2,383 6.4 -10.6°
Sets 05:38:06 0° 192° (SSW) 3,332 7.2 -10.2°
